Wetbulb
76.39 77.00 75.92 74.70 76.32 75.76 75.59 74.54 72.35 68.79 70.87 73.22 76.39 77.86 78.87 78.34 75.48 76.52 75.80 67.80 67.68 67.68 67.80 68.18 68.37 69.26 70.02 70.53 70.95 71.37 72.34 72.65 72.64 72.47 72.68 73.12 72.67 72.68
75.61 76.40 76.57 75.80 75.76 75.72 75.84 77.68 74.80 73.87 71.52 73.67 74.80 76.99 77.90 77.34 75.28 76.61 73.92 68.62 66.88 66.47 66.43 66.32 67.01 67.88 68.50 68.95 69.29 69.74 70.44 70.77 70.70 70.62 70.74 70.93 71.38 71.73
76.40 76.05 76.40 77.07 74.82 75.88 76.79 75.37 75.16 74.88 72.09 73.10 76.97 77.53 77.18 76.41 75.37 74.94 72.59 74.74 70.09 65.27 64.90 64.57 64.96 65.81 66.21 66.72 67.21 67.89 68.31 68.69 69.12 69.49 70.00 70.08 70.25 70.23
76.18 75.90 75.46 75.16 76.74 76.76 75.43 76.94 76.65 75.71 73.59 73.51 76.51 74.93 77.04 76.36 73.98 73.58 73.91 74.03 73.74 64.70 63.55 62.97 63.10 63.54 63.42 63.44 63.75 64.42 64.69 65.65 66.28 66.77 67.64 68.08 68.48 68.33
76.22 75.91 75.76 75.89 76.13 75.75 76.15 75.19 74.91 75.31 75.72 73.40 73.60 77.76 76.14 74.00 72.01 71.44 71.74 70.82 69.53 63.33 62.46 62.08 61.95 62.14 61.64 60.87 60.48 59.55 59.08 60.38 61.09 62.31 63.84 64.39 65.25 65.53
76.14 76.70 76.64 76.18 76.19 76.53 76.09 76.50 76.19 75.27 75.40 74.44 73.79 75.06 76.66 73.02 71.73 67.84 65.08 65.83 64.88 65.78 64.73 64.94 62.96 61.93 61.57 60.73 60.07 59.00 57.42 57.36 57.54 58.58 59.55 60.62 61.94 62.65
76.07 76.38 76.87 76.02 72.88 73.34 75.41 77.61 76.70 74.93 74.14 73.68 73.12 76.84 77.02 71.41 69.36 69.55 68.01 65.56 65.34 66.90 65.18 64.65 65.35 65.55 63.33 61.00 61.13 58.84 58.01 57.11 56.30 56.40 56.78 57.10 58.02 58.93
75.39 75.99 76.60 74.25 73.58 69.64 68.77 69.19 72.87 76.02 75.29 75.27 73.19 75.63 77.78 77.12 74.12 71.37 69.05 64.63 63.19 66.12 64.41 65.41 68.48 65.53 64.60 62.24 57.64 56.87 56.68 55.89 55.43 55.52 55.76 55.92 56.10 56.15
75.74 75.79 75.29 74.79 73.76 76.38 70.03 67.84 67.93 66.91 68.58 75.64 74.56 74.26 76.03 77.15 77.45 73.85 71.18 69.97 70.07 68.99 67.68 65.17 65.58 63.81 63.73 59.67 55.91 56.00 56.05 55.42 55.01 55.04 54.98 54.36 53.79 53.29
75.71 75.99 76.23 76.48 76.26 76.01 76.36 76.09 76.37 76.57 75.70 74.88 75.54 76.04 76.56 77.39 76.98 76.93 74.18 72.62 70.57 68.82 70.03 65.00 64.84 61.72 60.73 59.11 56.15 55.39 55.21 54.72 54.20 54.02 53.35 52.48 51.67 51.20
76.63 77.31 76.79 76.68 70.78 65.14 76.17 75.14 75.09 75.41 70.71 67.94 66.54 63.95 64.53 65.94 70.25 76.55 72.69 68.95 66.74 65.45 67.65 63.86 61.02 57.59 57.09 55.79 57.52 55.67 54.95 53.45 52.61 52.96 52.57 51.56 50.31 49.98
76.42 77.65 66.33 72.19 64.55 60.91 75.46 75.46 73.99 74.95 75.44 75.45 74.40 70.16 66.45 71.00 64.73 74.27 74.46 69.98 68.89 64.51 66.29 62.93 59.38 57.79 55.09 56.75 58.32 53.92 53.18 51.99 51.06 51.22 51.67 50.72 49.50 55.56
74.05 74.69 75.40 61.33 59.41 57.78 58.20 73.82 73.33 72.55 73.36 75.16 75.30 74.52 74.21 73.98 73.31 72.80 75.13 73.17 71.48 68.11 66.52 64.90 60.15 59.15 59.75 56.98 56.63 56.15 54.59 50.66 53.73 53.73 50.00 49.36 48.55 49.48
71.28 72.58 72.54 57.01 55.78 56.51 60.34 61.95 58.50 60.57 70.55 71.61 74.09 73.54 73.15 73.48 73.32 73.13 72.24 71.39 71.93 70.60 65.31 65.54 61.78 59.65 58.27 56.27 55.77 58.63 59.18 57.31 58.58 57.72 57.53 52.50 49.35 50.23
68.48 64.72 57.75 55.78 55.06 58.77 57.17 57.61 57.13 67.08 67.82 68.02 68.93 69.51 70.86 72.24 69.81 68.34 63.68 59.42 56.35 59.82 64.27 62.65 61.64 59.71 57.93 56.99 56.01 56.73 57.19 60.09 60.45 60.31 60.55 59.41 58.21 58.89
63.62 65.49 63.29 60.33 57.73 60.63 62.75 65.70 65.65 67.56 67.13 67.01 66.83 64.03 61.20 58.92 57.31 57.78 56.75 56.01 55.26 53.71 56.01 59.84 62.11 61.35 58.43 58.27 57.15 56.27 57.77 56.93 59.49 60.81 62.24 62.59 61.95 60.94
61.16 65.92 64.87 64.19 64.15 64.54 64.85 64.64 65.51 66.65 65.18 64.54 59.71 56.75 55.50 55.08 54.36 54.82 54.68 54.18 52.89 52.37 51.70 54.56 57.57 59.66 61.78 60.62 58.85 59.54 58.91 60.68 61.14 61.89 61.60 58.56 58.69 58.95
63.27 62.94 62.51 62.51 62.23 61.34 60.65 60.75 61.20 60.78 60.52 58.81 57.39 56.49 55.23 55.17 54.58 54.66 54.78 55.85 54.87 51.87 50.71 53.38 54.87 55.06 55.22 57.79 57.87 62.46 62.12 60.98 61.27 60.79 59.29 55.18 55.13 57.22
65.28 64.12 62.39 61.57 61.40 60.32 59.27 58.86 57.35 57.25 57.93 56.81 56.57 55.77 55.13 54.55 54.47 52.85 53.03 52.15 51.60 52.31 52.01 52.85 53.37 54.18 54.04 52.35 56.48 54.51 58.77 58.27 57.37 55.83 55.76 55.57 55.19 56.57
65.68 65.01 64.40 64.42 63.59 60.83 60.40 59.27 58.74 58.91 58.27 57.07 55.97 55.39 55.09 54.28 53.18 52.34 52.60 51.89 51.68 52.96 52.70 53.98 54.58 54.60 53.18 52.65 53.45 58.05 48.52 57.90 56.13 55.24 55.38 57.17 58.07 54.23
66.36 65.27 65.43 65.16 64.67 64.51 62.05 62.77 61.41 60.10 59.90 59.54 57.45 56.78 56.29 55.61 54.66 54.44 53.07 50.47 51.14 52.22 52.84 54.49 56.35 55.81 58.28 58.81 54.20 54.90 56.53 49.78 54.19 58.17 58.49 56.69 56.16 56.67
65.93 65.04 65.01 65.35 64.65 64.43 64.36 61.51 61.47 59.46 60.31 59.98 58.47 56.53 56.80 57.01 56.03 56.70 56.94 56.15 56.53 56.60 56.54 57.16 58.18 56.70 56.47 55.01 54.23 55.86 55.93 57.90 53.73 52.05 52.48 52.74 56.16 53.64
64.55 65.16 64.38 65.39 64.38 64.29 63.33 62.90 59.39 59.41 60.57 61.01 61.19 60.24 59.53 59.86 60.33 60.20 59.65 58.32 57.58 57.08 56.56 55.31 56.34 57.04 56.25 56.48 55.30 55.80 57.10 57.19 57.31 56.96 57.09 52.99 52.56 52.87
MSLP
1016.75 1016.97 1016.96 1016.32 1016.04 1016.17 1016.25 1016.21 1016.12 1015.46 1015.28 1016.39 1016.61 1016.67 1016.60 1017.37 1018.17 1018.09 1018.47 1020.19 1020.30 1020.32 1020.31 1020.28 1020.27 1020.13 1019.99 1019.86 1019.75 1019.55 1019.33 1019.31 1019.51 1019.69 1019.70 1019.63 1019.84 1019.94
1016.59 1016.85 1016.94 1016.30 1016.24 1016.03 1015.96 1016.72 1016.04 1016.07 1016.23 1015.48 1015.61 1016.47 1016.60 1016.61 1018.41 1018.17 1018.92 1019.87 1020.33 1020.43 1020.48 1020.51 1020.49 1020.37 1020.26 1020.17 1020.11 1019.99 1019.87 1019.81 1019.85 1019.93 1019.99 1020.09 1020.23 1020.35
1016.41 1016.58 1016.64 1016.69 1016.30 1015.96 1016.03 1016.75 1016.63 1016.26 1016.15 1016.21 1016.56 1016.75 1017.21 1017.67 1018.08 1018.57 1019.20 1018.62 1019.85 1020.49 1020.51 1020.56 1020.61 1020.62 1020.58 1020.48 1020.43 1020.41 1020.35 1020.37 1020.31 1020.26 1020.25 1020.31 1020.41 1020.57
1016.47 1016.30 1016.34 1016.09 1016.32 1016.43 1015.98 1015.92 1016.14 1016.33 1015.93 1015.74 1016.04 1016.67 1017.06 1017.74 1018.24 1018.57 1018.31 1018.28 1018.84 1020.54 1020.75 1020.84 1020.84 1020.80 1020.80 1020.72 1020.73 1020.79 1020.80 1020.80 1020.76 1020.76 1020.68 1020.67 1020.77 1020.91
1016.11 1016.06 1015.89 1015.95 1016.09 1015.77 1015.79 1015.73 1015.38 1015.59 1015.76 1015.72 1015.43 1016.30 1017.32 1017.93 1018.37 1018.80 1018.93 1019.26 1019.53 1020.60 1020.83 1020.91 1020.95 1020.91 1020.92 1020.92 1020.93 1020.89 1020.98 1021.05 1021.16 1021.11 1021.13 1021.09 1021.14 1021.33
1015.51 1015.50 1015.51 1015.56 1015.67 1015.79 1015.70 1015.73 1015.54 1015.51 1015.34 1015.42 1015.21 1015.73 1016.34 1017.58 1018.05 1018.57 1019.40 1019.71 1019.83 1019.79 1020.26 1020.28 1020.80 1020.94 1020.95 1021.01 1021.02 1020.99 1020.96 1020.92 1021.21 1021.28 1021.38 1021.53 1021.59 1021.72
1015.20 1015.13 1015.06 1015.13 1015.26 1015.51 1015.36 1015.18 1015.41 1015.30 1014.77 1014.76 1014.44 1014.95 1015.74 1016.85 1017.21 1017.84 1018.42 1019.13 1019.45 1019.21 1019.69 1019.90 1019.87 1019.86 1020.52 1020.96 1021.02 1021.23 1021.27 1021.34 1021.54 1021.60 1021.57 1021.68 1021.83 1021.94
1014.22 1014.32 1014.46 1014.68 1014.96 1015.17 1015.30 1015.18 1015.21 1014.99 1014.87 1014.73 1013.82 1014.25 1014.68 1015.28 1015.82 1016.54 1017.42 1018.25 1018.72 1019.12 1019.25 1018.88 1018.36 1019.12 1019.58 1020.32 1021.14 1021.33 1021.46 1021.67 1021.82 1021.75 1021.79 1021.95 1022.08 1022.12
1013.60 1013.71 1013.75 1013.53 1014.00 1014.27 1014.54 1014.65 1014.85 1014.80 1014.66 1014.27 1014.13 1013.98 1013.95 1014.39 1015.14 1015.74 1016.25 1016.66 1016.51 1017.20 1018.10 1018.08 1018.57 1019.00 1019.66 1020.52 1021.21 1021.42 1021.69 1021.90 1022.11 1022.26 1022.40 1022.42 1022.50 1022.61
1012.99 1013.05 1013.19 1013.18 1013.22 1013.33 1013.49 1013.39 1013.45 1013.41 1013.80 1013.89 1013.77 1013.54 1013.53 1013.75 1014.01 1014.45 1015.11 1015.79 1016.37 1016.65 1016.94 1017.28 1018.31 1019.26 1020.15 1020.67 1021.17 1021.46 1021.66 1022.03 1022.28 1022.23 1022.42 1022.69 1022.97 1023.10
1012.45 1012.53 1012.57 1012.67 1012.84 1013.21 1013.42 1013.04 1012.73 1012.26 1011.95 1012.62 1013.15 1013.55 1013.52 1013.47 1013.71 1014.04 1014.59 1015.11 1015.66 1016.24 1016.59 1017.26 1018.61 1019.69 1020.31 1020.66 1020.88 1021.29 1021.68 1021.94 1022.41 1022.68 1022.84 1022.96 1023.07 1023.23
1011.79 1011.90 1012.15 1012.40 1012.40 1012.97 1013.05 1012.78 1012.46 1012.17 1011.77 1011.76 1012.81 1013.25 1013.23 1012.91 1013.34 1013.09 1013.35 1013.73 1014.24 1015.23 1015.75 1016.51 1017.72 1018.78 1019.73 1020.21 1020.15 1020.98 1021.48 1021.95 1022.05 1022.62 1023.12 1023.17 1023.01 1022.36
1011.42 1011.14 1011.74 1012.35 1012.68 1012.96 1013.13 1012.75 1012.06 1012.33 1011.83 1011.93 1012.04 1011.75 1011.81 1011.82 1011.93 1012.02 1011.92 1012.51 1012.84 1013.48 1014.22 1014.91 1016.07 1017.34 1018.11 1019.07 1019.96 1020.02 1020.44 1021.53 1021.50 1021.78 1022.63 1022.84 1022.74 1022.50
1012.13 1011.74 1011.97 1012.62 1012.93 1013.05 1013.24 1012.90 1012.69 1012.61 1012.25 1011.83 1011.45 1011.03 1010.58 1010.30 1010.77 1011.40 1011.42 1011.90 1011.85 1012.35 1013.52 1014.33 1015.15 1015.46 1016.35 1018.02 1018.86 1019.90 1019.69 1020.13 1020.26 1020.75 1021.01 1021.94 1022.58 1022.49
1012.67 1012.68 1012.86 1012.84 1012.79 1012.64 1012.33 1012.21 1012.31 1012.29 1012.02 1011.63 1011.18 1011.09 1011.13 1011.18 1011.65 1012.16 1012.33 1012.77 1013.28 1013.11 1012.83 1013.68 1013.44 1015.47 1015.82 1016.92 1017.69 1019.13 1019.71 1019.79 1019.62 1019.83 1020.14 1020.60 1021.04 1020.96
1012.79 1012.46 1012.47 1012.68 1012.56 1012.42 1012.20 1011.62 1011.86 1011.60 1011.42 1011.17 1011.21 1011.39 1011.70 1012.09 1012.55 1012.91 1013.43 1014.10 1014.23 1013.96 1013.89 1013.85 1014.47 1015.50 1016.49 1016.28 1017.17 1018.31 1018.72 1018.75 1019.24 1019.18 1019.10 1019.59 1019.88 1020.04
1012.95 1012.50 1012.44 1012.40 1012.19 1012.02 1012.00 1011.82 1011.43 1011.30 1011.30 1011.21 1011.41 1011.86 1012.30 1012.55 1013.02 1013.27 1013.45 1014.09 1014.58 1015.36 1015.25 1015.26 1015.37 1015.75 1016.73 1016.72 1017.29 1017.73 1017.90 1017.95 1018.44 1018.85 1019.31 1019.35 1019.26 1019.08
1012.60 1012.38 1012.34 1012.33 1012.32 1012.33 1012.28 1012.05 1011.84 1011.72 1011.68 1011.85 1012.15 1012.43 1012.81 1013.16 1013.52 1013.75 1013.93 1014.33 1014.66 1015.60 1016.00 1016.41 1016.75 1016.56 1017.11 1016.99 1016.91 1016.87 1017.19 1017.97 1018.34 1018.69 1018.88 1018.59 1018.80 1018.80
1012.07 1012.22 1012.47 1012.55 1012.57 1012.67 1012.72 1012.62 1012.57 1012.67 1012.62 1012.68 1012.89 1013.24 1013.52 1013.92 1014.04 1014.22 1014.47 1014.82 1015.30 1015.88 1016.21 1016.58 1016.74 1016.84 1016.48 1015.88 1016.76 1017.01 1017.29 1017.70 1018.25 1018.34 1018.27 1018.19 1018.11 1018.25
1011.68 1011.78 1011.96 1012.09 1012.35 1012.66 1012.79 1012.90 1013.00 1013.10 1013.21 1013.31 1013.42 1013.69 1014.00 1013.99 1014.28 1014.60 1014.88 1015.12 1015.49 1015.93 1016.47 1016.69 1016.56 1016.04 1015.41 1015.31 1016.03 1016.56 1017.35 1017.25 1017.49 1017.62 1017.70 1017.86 1017.71 1018.69
1011.58 1011.77 1011.82 1011.89 1012.06 1012.21 1013.05 1013.13 1013.19 1013.13 1013.31 1013.54 1014.01 1014.27 1014.47 1014.49 1014.66 1014.97 1015.24 1015.55 1015.84 1015.81 1015.49 1015.22 1015.10 1015.60 1015.30 1015.40 1015.47 1016.07 1016.79 1017.43 1017.42 1017.32 1017.24 1017.43 1017.18 1017.18
1011.65 1011.85 1012.04 1012.09 1012.32 1012.67 1012.85 1013.30 1013.45 1013.51 1013.56 1013.78 1014.14 1014.51 1014.64 1014.59 1014.59 1014.52 1014.65 1014.69 1014.49 1013.99 1013.79 1014.25 1015.26 1015.22 1015.15 1015.00 1014.78 1015.37 1015.82 1016.42 1017.34 1017.55 1017.62 1017.95 1017.48 1016.95
1011.88 1011.69 1011.95 1011.88 1012.32 1012.54 1013.01 1013.21 1013.73 1013.64 1013.34 1013.31 1013.41 1013.66 1013.88 1013.45 1013.30 1013.16 1013.22 1013.62 1013.63 1013.23 1013.67 1014.11 1014.58 1014.70 1014.68 1014.49 1014.37 1014.78 1015.31 1015.79 1015.76 1016.34 1016.59 1017.05 1017.47 1017.76
Wind_Speed
6 6 6 7 3 4 4 5 5 5 4 3 2 2 2 5 8 6 6 8 5 4 4 4 4 4 5 6 7 6 8 8 5 2 2 3 4 4
6 4 6 5 5 5 4 4 7 3 2 5 3 4 4 3 7 4 8 9 5 4 4 4 3 4 5 6 7 7 7 8 7 7 7 7 7 8
6 6 7 5 7 4 2 4 5 4 5 4 3 4 3 4 6 5 8 6 7 5 5 4 3 5 6 7 7 7 8 7 7 7 7 8 8 8
9 8 8 7 7 6 7 3 6 6 8 5 0 4 5 8 7 7 5 4 3 7 4 3 3 5 6 7 8 8 7 7 8 8 10 12 14 14
10 11 9 9 8 7 6 6 6 5 8 8 5 4 3 6 4 2 3 3 3 8 6 5 4 4 5 6 7 8 7 7 6 7 9 11 12 13
11 10 10 9 9 8 7 7 8 8 6 8 5 5 7 5 6 5 4 3 5 6 3 7 5 7 6 7 7 7 7 8 7 8 8 9 10 11
9 10 11 11 7 8 7 8 7 9 8 8 9 7 6 5 7 5 6 5 5 6 5 7 8 8 8 6 8 7 7 8 8 7 9 9 9 11
10 11 11 8 11 11 12 11 9 9 10 8 10 5 7 6 7 7 7 5 4 8 8 7 6 5 5 4 7 8 8 8 7 9 9 9 10 11
11 11 11 11 13 12 13 11 10 12 13 10 11 11 8 7 8 10 10 9 8 8 10 8 7 5 3 6 6 7 7 7 7 7 8 9 10 10
14 14 13 13 12 11 12 12 13 12 13 12 14 12 11 9 10 10 11 8 2 8 9 6 5 4 5 4 6 7 8 7 7 9 9 9 8 9
13 14 15 14 13 10 13 14 14 13 11 12 7 4 4 2 5 6 7 9 7 6 9 5 5 4 4 4 6 9 8 8 6 6 7 8 8 9
12 12 12 15 8 5 11 13 15 12 13 9 11 11 10 10 9 12 9 11 10 6 9 9 8 6 4 4 5 7 7 9 9 8 7 8 8 8
9 7 3 5 5 6 6 12 13 9 12 8 10 12 12 13 11 13 13 11 10 10 11 11 9 7 4 5 4 7 7 7 7 9 10 9 10 9
8 7 7 8 6 7 7 8 11 8 8 10 9 12 12 12 11 8 8 6 6 8 14 9 4 10 6 6 5 6 4 7 8 8 8 8 10 9
5 5 8 9 10 10 15 11 8 7 6 7 9 9 6 5 3 1 5 9 8 6 9 5 7 8 8 4 7 5 5 4 6 8 9 9 9 8
4 5 5 7 9 10 8 8 6 8 7 6 6 1 3 3 5 4 3 4 4 5 9 8 10 10 6 9 8 9 7 8 10 9 6 6 5 6
4 1 2 3 4 4 5 5 5 5 4 2 3 5 5 6 5 6 7 7 8 4 6 5 6 7 3 8 6 9 11 8 9 6 6 7 7 6
2 4 4 4 4 4 4 4 5 5 4 4 5 5 6 6 6 6 6 8 11 8 7 4 2 4 1 3 4 6 5 5 6 7 7 6 7 5
6 6 5 5 5 4 4 3 4 4 5 5 5 6 7 7 7 7 7 7 8 6 5 3 2 3 6 6 2 4 7 7 6 8 7 6 6 6
5 5 5 4 4 4 3 4 5 5 5 6 7 7 6 7 7 6 5 7 6 4 4 3 5 7 5 5 4 6 6 8 9 8 7 6 4 6
2 3 3 3 4 4 4 3 4 5 5 7 6 5 5 5 6 5 5 6 6 7 9 8 5 3 4 2 5 8 8 6 5 6 7 7 7 9
3 3 2 2 3 3 3 4 4 5 5 5 5 4 4 4 5 8 9 10 9 7 4 7 6 6 7 8 7 8 8 9 6 6 6 7 9 8
3 3 4 4 4 5 5 4 2 0 2 5 6 8 8 7 7 6 7 7 6 5 6 7 6 7 8 8 4 7 7 6 8 10 10 16 14 9
Wind_Direction
224 231 247 256 222 260 257 270 263 296 31 150 114 192 171 156 120 200 135 123 130 125 110 88 65 58 51 49 51 53 57 88 104 85 61 169 135 104
214 236 244 265 255 247 263 355 277 275 257 342 81 137 204 141 125 207 106 157 123 110 91 80 72 66 62 61 58 62 71 86 95 96 93 94 100 99
255 222 232 240 264 299 284 221 286 222 245 263 112 165 146 168 155 152 171 187 136 122 110 91 75 74 76 70 64 68 71 77 88 94 103 110 111 114
251 229 235 237 215 227 245 240 203 252 275 255 196 203 187 173 166 178 195 162 161 121 109 96 93 98 97 91 78 71 70 78 85 84 85 93 102 104
245 250 239 236 241 271 269 241 241 226 218 246 257 189 136 143 147 144 177 126 99 117 123 115 108 107 100 99 100 99 95 87 83 91 99 100 103 106
238 245 241 243 246 249 246 251 247 253 232 246 230 206 211 163 187 170 165 177 166 185 108 84 154 131 127 122 115 118 117 110 107 103 99 100 102 104
242 246 234 237 243 252 256 228 242 234 241 247 247 211 205 172 191 181 191 167 197 192 186 183 179 172 154 175 129 132 119 113 114 109 112 114 115 115
230 235 245 221 221 223 233 247 261 253 253 278 268 266 255 211 199 189 176 175 197 199 196 211 196 176 164 179 109 133 129 128 137 139 136 135 135 127
239 243 242 239 214 242 216 222 233 244 248 255 251 265 270 231 214 199 205 208 228 144 195 197 188 186 166 123 149 147 142 147 149 140 137 136 133 125
244 242 240 249 247 240 240 237 240 232 220 231 238 251 243 240 225 220 205 212 95 167 198 193 173 168 167 151 160 165 164 157 158 155 153 148 133 133
242 242 239 240 243 217 243 254 249 252 221 202 242 324 324 230 253 200 195 174 190 195 188 155 160 125 170 185 170 179 169 158 163 161 160 157 154 150
242 241 232 252 280 271 239 241 252 255 261 228 225 239 234 228 212 226 198 208 215 179 188 176 154 155 158 180 184 153 166 174 161 169 184 182 182 198
263 278 5 23 344 322 260 268 265 313 273 257 256 235 231 225 214 214 206 218 215 223 169 174 167 163 154 139 170 173 180 155 181 174 191 204 216 233
275 293 315 25 329 301 278 260 268 283 266 269 264 249 244 233 224 203 205 212 224 214 162 177 156 164 144 139 146 176 189 157 190 191 178 189 223 254
271 308 316 296 286 276 245 251 253 248 238 242 245 241 241 232 215 199 36 69 56 33 158 122 134 142 128 132 135 145 154 199 204 189 187 181 200 204
224 258 304 293 281 288 283 238 237 250 243 244 245 34 51 61 78 77 70 61 49 81 52 70 111 132 135 133 137 157 182 180 195 206 201 194 201 238
322 325 347 341 324 324 311 299 299 277 252 208 132 120 114 111 107 111 116 109 96 86 33 30 64 71 91 143 158 173 187 195 176 181 195 202 217 222
154 68 55 37 18 358 348 348 2 23 40 76 91 112 118 117 110 102 99 104 108 98 95 80 47 92 141 126 30 177 153 161 170 171 213 220 208 194
86 81 67 53 48 41 31 34 57 64 75 81 90 96 99 101 100 90 88 96 99 103 94 96 182 226 165 119 100 73 163 173 175 184 205 215 222 202
94 88 85 74 81 71 87 100 104 98 108 118 115 120 123 126 126 118 112 115 114 114 145 185 199 190 172 167 159 170 182 186 190 195 200 221 234 119
64 84 77 68 62 76 75 52 92 105 128 126 117 120 117 117 112 114 116 135 160 181 178 180 147 44 135 122 180 164 184 207 253 226 205 242 249 238
170 177 192 118 123 126 117 128 132 129 127 135 133 128 138 136 149 163 174 177 197 174 158 107 146 170 189 199 204 164 185 182 208 244 255 253 291 294
224 209 197 177 164 179 161 161 156 117 200 171 179 175 182 202 198 192 180 186 199 180 139 145 157 169 181 205 169 175 151 191 200 194 212 209 230 253